User: anonymous   Login
Location: Chillicothe
(39.7950°N, 93.5520°W)
Time: 06:44:59
(UTC-06:00)
Language:

LilacSat-2 - Orbit

View from above orbital plane
View from above orbital plane
View from above satellite
View from above satellite

Ground track
Ground track

The orbit data is extracted from the following two-line orbital elements,

1 40908U 15049K   19319.23569794  .00000181  00000-0  13567-4 0  9994
2 40908  97.4839 317.2194 0017227  49.7899   5.7808 15.13889614229439
Epoch (UTC): 15 November 2019 05:39:24
Eccentricity: 0.0017227
inclination: 97.4839°
perigee height: 512 km
apogee height: 536 km
right ascension of ascending node: 317.2194°
argument of perigee: 49.7899°
revolutions per day: 15.13889614
mean anomaly at epoch: 5.7808°
orbit number at epoch: 22943

The dashed part of the orbit path shows where the satellite is in the earth's shadow,  

DLR